Location: DARK SKY Beskydy - Park tmavé oblohy, www.darkskybeskydy.cz
(49.4926°N, 18.5016°E)
Time: 10:40:21
(UTC+02:00)

Vanguard 1 - Pass Details

Date: 02 March 2024
Orbit: 653 x 3825 km, 34.2° (Epoch: 12 April)

Event Time Altitude Azimuth Distance (km) Brightness Sun altitude
Rises 15:35:30 0° 176° (S) 4,222 13.7 16.5°
Reaches altitude 10° 15:40:55 10° 146° (SE) 3,907 13.2 15.8°
Maximum altitude 15:44:05 12° 128° (SE) 4,145 13.1 15.4°
Drops below altitude 10° 15:47:45 10° 110° (ESE) 4,708 13.2 14.8°
Sets 15:56:38 0° 85° (E) 6,630 13.7 13.6°
